Location: Bouveret
(46.3846°N, 6.8533°E)
Time: 11:47:40
(UTC+00:00)

Daily predictions for brighter satellites

Satellite Brightness Start Highest point End
(mag) Time Altitude Azimuth Time Altitude Azimuth Time Altitude Azimuth
Cosmos 1680 Rocket 3.5 16:52:48 10° NNW 16:58:02 66° ENE 17:03:12 10° SSE
Nadezhda 4 Rocket 4.0 16:53:15 10° S 16:59:23 65° E 17:05:29 10° NNE
Meteor 2-10 Rocket 3.9 16:55:31 10° NNW 17:00:54 73° W 17:06:01 10° S
NOAA 12 4.3 16:56:57 10° SSE 17:02:11 81° WSW 17:07:28 10° NNW
CZ-4B R/B 2.4 17:02:03 10° NE 17:04:51 25° E 17:07:34 10° SSE
CZ-2D R/B 4.0 17:02:10 10° SE 17:05:32 30° ENE 17:08:54 10° N
Landsat 5 3.6 17:02:14 10° N 17:06:05 70° WNW 17:09:53 10° SSW
MOS 1 Rocket 4.1 17:02:56 10° NE 17:06:33 26° E 17:10:10 10° SSE
Cosmos-2242 4.1 17:06:08 10° NNE 17:09:32 22° ENE 17:12:57 10° ESE
NOAA 11 4.3 17:04:02 10° SSE 17:09:32 90° E 17:15:05 10° NNW
AQUARIUS 4.4 17:05:54 10° S 17:10:24 77° WSW 17:14:56 10° NNW
NOSS 3-1 (C) 4.1 17:04:31 10° NW 17:12:00 82° NE 17:20:43 10° SE
COSMO-SKYMED 1 3.1 17:09:57 10° NNE 17:14:01 37° E 17:18:02 10° SSE
BREEZE-M DEB (TANK) 2.3 17:12:57 10° WNW 17:15:11 39° N 17:17:14 12° ENE
Cosmos 1937 Rocket 3.9 17:10:37 10° S 17:15:39 46° ESE 17:20:44 10° NNE
Cosmos 1758 Rocket 4.5 17:12:52 10° SSE 17:16:41 28° E 17:20:31 10° NNE
Aureole 3 2.6 17:14:21 10° N 17:17:26 86° W 17:20:24 10° S
Okean 1-7 Rocket 4.2 17:13:05 10° SSW 17:17:37 65° W 17:22:11 10° N
USA 290 3.1 17:18:45 10° N 17:21:34 27° ENE 17:24:20 10° ESE
NOSS 2-1 (C) 3.0 17:20:17 10° SW 17:23:36 77° NW 17:27:06 10° NE
Cosmos 1833 Rocket 2.9 17:19:59 10° NNW 17:25:27 49° ENE 17:30:53 10° SE
H-2A R/B 2.6 17:23:30 10° SE 17:28:01 34° ENE 17:32:40 10° N
Meteor 1-21 Rocket 4.3 17:23:40 10° S 17:29:12 87° W 17:34:50 10° N
NOSS 2-1 (D) 3.2 17:26:15 10° SW 17:29:33 65° NW 17:33:02 10° NE
Cosmos 1939 Rocket 2.9 17:26:05 10° SSE 17:30:11 88° ENE 17:34:14 10° NNW
Helios 1A Rocket 4.0 17:27:16 10° ESE 17:30:37 24° ENE 17:33:58 10° N
H-2A R/B 2.6 17:26:55 10° N 17:31:16 61° WNW 17:35:27 10° SSW
Cosmos 2344 4.3 17:22:43 10° NW 17:31:51 69° NE 17:44:35 10° SE
Cosmos 1602 Rocket 3.5 17:29:02 10° S 17:33:21 74° E 17:37:46 10° NNE
USA 229 DEB 3.9 17:26:09 10° NW 17:33:29 81° NE 17:41:12 10° SE
USA 229 3.9 17:26:15 10° NW 17:33:35 81° NE 17:41:19 10° SE
Cosmos 44 3.9 17:28:50 10° SW 17:33:36 57° NW 17:38:42 10° NNE
Cosmos 2026 Rocket 4.0 17:28:37 10° S 17:34:36 57° E 17:40:43 10° NNE
CZ-3B R/B 2.0 17:32:05 10° NW 17:34:40 67° NE 17:42:06 10° ESE
SeaSat 1 4.2 17:30:33 10° N 17:34:42 28° NW 17:38:50 10° WSW
Feng Yun 1-1 Rocket 4.2 17:30:01 10° SSE 17:35:29 78° ENE 17:41:09 10° NNW
CSL-04 DEB 4.3 17:31:48 10° NNE 17:35:56 81° ESE 17:39:56 10° SSW
SJ 16-02 3.0 17:32:41 10° SW 17:36:40 33° WNW 17:40:40 10° N
Cosmos 2112 Rocket 4.4 17:32:56 10° NNW 17:38:08 68° WSW 17:43:16 10° S
YAOGAN 1 3.0 17:35:32 10° SE 17:39:32 38° ENE 17:43:34 10° N
Cosmos 990 Rocket 4.2 17:34:50 10° SSW 17:40:01 72° WNW 17:45:13 10° NNE
Cosmos 1689 Rocket 3.1 17:41:34 23° E 17:41:50 23° E 17:44:12 10° SSE
Cosmos 1844 Rocket 4.0 17:36:46 10° WSW 17:41:59 37° NW 17:47:13 10° NNE
Cosmos 1553 Rocket 4.3 17:36:14 10° N 17:42:21 45° ENE 17:48:22 10° SSE
Aureole 3 Rocket 2.5 17:39:55 10° N 17:43:09 61° E 17:47:11 10° SSE
COSMOS 2406 3.2 17:39:04 10° NNW 17:44:53 76° ENE 17:50:38 10° SSE
Cosmos 2082 Rocket 2.6 17:39:50 10° NNW 17:45:13 40° NE 17:50:34 10° SE
HJ-1C 4.5 17:47:04 24° ENE 17:47:13 24° ENE 17:49:59 10° NNE
Cosmos 1703 3.7 17:43:35 10° SSW 17:47:25 63° W 17:51:17 10° N
Cosmos 1825 Rocket 3.9 17:44:18 10° SSE 17:48:27 43° E 17:52:39 10° NNE
IRS-1C Rocket 4.0 17:43:46 10° SSE 17:49:00 76° ENE 17:54:16 10° NNW
NOSS 3-1 (A) 4.1 17:41:38 10° NW 17:49:10 86° NE 17:57:54 10° SE
Meteor 1-27 4.4 17:43:49 10° N 17:49:11 45° ENE 17:54:30 10° SE
X-37B 1.2 17:46:31 10° W 17:49:38 51° SSW 17:51:36 20° ESE
Cosmos 1812 Rocket 3.8 17:48:02 10° NNW 17:52:24 73° W 17:56:44 10° S
ISS -2.6 17:49:26 10° WNW 17:52:32 32° N 17:53:50 23° NE
Okean O Rocket 3.6 17:51:05 10° SSW 17:55:03 32° W 17:59:02 10° NNW
ATLAS 5 CENTAUR R/B 4.2 17:56:16 10° NNW 17:57:58 12° N 17:59:45 10° NNE
CZ-4 R/B 1.2 17:55:10 10° SSE 17:59:10 70° ENE 18:03:07 10° N
Iridium 4 Rocket 3.4 17:55:19 10° N 18:00:44 85° E 18:05:38 10° S
SKYMED 2 3.8 17:57:50 10° N 18:02:11 71° WNW 18:06:29 10° SSW
ERS-2 2.0 17:58:38 11° NNE 18:02:11 65° ESE 18:05:47 10° S
CSL-04 Rocket 3.9 17:58:24 10° SE 18:03:35 46° ENE 18:08:50 10° N
Okean-O 2.5 18:02:14 10° SSE 18:06:39 75° ENE 18:11:06 10° N
CZ-4C R/B 4.3 18:04:20 10° NW 18:08:31 18° N 18:11:46 13° NE
S3M 4.1 18:02:58 10° N 18:08:53 48° ENE 18:14:48 10° SSE
USA 234 4.2 18:05:52 19° NE 18:09:46 35° N 18:15:34 10° WNW
Cosmos 1340 4.0 18:07:29 10° SW 18:11:01 40° WNW 18:14:37 10° N
Cosmos 1346 Rocket 2.6 18:07:32 10° S 18:11:27 77° E 18:15:12 11° NNE
Cosmos 1655 Rocket 4.2 18:06:00 10° SSE 18:11:48 43° E 18:17:37 10° NNE
Cosmos 2278 Rocket 2.1 18:06:16 10° SSW 18:11:57 84° ESE 18:17:11 12° NNE
Cosmos 1953 Rocket 3.6 18:10:41 10° S 18:14:54 54° E 18:17:58 18° NNE
CZ-2C R/B 3.8 18:09:49 10° S 18:15:13 61° W 18:20:56 10° NNW
SWARM C 4.4 18:14:17 10° S 18:17:33 65° E 18:18:10 51° NE
SWARM A 4.0 18:14:22 10° S 18:17:40 70° E 18:18:52 36° NNE
Cosmos 2292 Rocket 3.6 18:14:59 10° S 18:19:42 51° E 18:20:41 41° NE
SAR-Lupe-4 3.4 18:17:50 21° NNE 18:20:07 87° E 18:23:42 10° SSW
Cosmos 44 Rocket 3.6 18:17:28 10° SSW 18:22:10 48° ESE 18:23:19 40° E
ARGOS 3.0 18:23:22 10° SSE 18:28:43 78° ENE 18:34:07 10° NNW
DMSP B5D1-3 4.4 18:23:47 10° NNE 18:28:54 75° ESE 18:34:00 10° S
Meteor 2-2 Rocket 4.5 18:24:37 10° N 18:30:25 49° ENE 18:34:21 20° SE
Cosmos 1869 3.5 18:27:03 10° N 18:30:11 50° NNE 18:30:11 50° NNE
PSLV R/B 4.3 18:29:16 10° N 18:33:28 65° WNW 18:37:36 10° SSW
Cosmos 372 Rocket 4.2 18:30:24 10° SSW 18:35:35 72° WNW 18:39:58 15° NNE
CZ-4B R/B 4.0 18:34:29 10° NNW 18:36:54 19° WNW 18:39:16 10° WSW
Cosmos 468 4.4 18:32:58 10° NNW 18:38:15 77° ENE 18:41:13 27° SSE
CZ-2C R/B 2.7 18:33:45 14° NNE 18:38:36 58° E 18:44:07 10° S
Cosmos 494 Rocket 3.9 18:37:06 10° NNW 18:42:12 58° ENE 18:42:29 57° E
Cosmos 2150 Rocket 3.8 18:39:39 10° SSW 18:44:46 72° ESE 18:45:58 52° NE
Cosmos 1048 Rocket 3.8 18:42:04 10° NNW 18:47:14 88° ENE 18:49:36 33° SSE
Cosmos 2297 4.2 18:47:08 10° S 18:51:23 42° SE 18:51:23 42° SE
SL-08 RB Rocket 3.8 18:59:18 48° S 19:00:28 73° WSW 19:04:58 10° NNW
H-2A R/B 3.6 19:02:47 10° SSW 19:07:24 35° W 19:12:09 10° NNW
Cosmos 1125 Rocket 3.6 19:04:14 10° SSW 19:08:41 66° S 19:08:41 66° S
Cosmos 1809 Rocket 4.5 19:03:41 10° SSW 19:09:48 79° W 19:16:00 10° N
Cosmos 2298 Rocket 4.3 19:06:53 10° SSW 19:12:09 65° WNW 19:13:35 46° N
Cosmos 2266 Rocket 3.9 19:07:42 10° S 19:13:57 81° W 19:20:08 10° N
NOSS 2-2 (C) 4.3 19:14:40 10° NW 19:20:07 83° NE 19:20:07 83° NE
X-37B 4.1 19:23:40 10° WSW 19:23:54 11° WSW 19:23:54 11° WSW
Cosmos 1943 Rocket 4.3 19:22:31 10° S 19:23:18 14° S 19:23:18 14° S
Cosmos 2082 Rocket 3.6 19:24:05 10° NW 19:29:15 36° WSW 19:33:42 13° SSW
ISS -0.5 19:26:26 10° WNW 19:26:48 13° WNW 19:26:48 13° WNW
ATLAS 5 CENTAUR R/B 4.5 19:41:55 10° NNW 19:42:29 12° N 19:42:29 12° N
Cosmos 2315 Rocket 4.3 19:40:26 10° NNW 19:46:33 62° W 19:46:33 62° W
ATLAS 2AS CENTAUR R/B 4.2 19:43:07 10° NW 19:48:21 26° N 19:48:21 26° N
USA 234 4.0 19:53:13 43° N 19:53:13 43° N 19:58:12 10° NW
Cosmos 2278 Rocket 4.4 19:52:34 10° W 19:56:46 21° NW 19:59:05 17° NNW
CZ-4C R/B 4.1 19:53:16 10° NNW 19:56:58 26° N 19:56:58 26° N
